KD0RXN-4 Weather Reports


time (UTC)temp
F
wind
direction
speed
knots
gust
knots
rain 1hr
in
rain 24hr
in
rain mn
in
humidity
%
barometer
mb
20260504050539 68 193 0.0 1.7 0.00 0.00 0.00 53 1008.0
20260504050023 68 178 0.0 1.7 0.00 0.00 0.00 52 1008.0
20260504045547 68 235 0.0 1.7 0.00 0.00 0.00 52 1008.0
20260504045031 68 221 0.0 1.7 0.00 0.00 0.00 52 1008.0
20260504044516 68 245 0.0 1.7 0.00 0.00 0.00 52 1007.9
20260504044042 69 204 0.0 1.7 0.00 0.00 0.00 51 1008.0
20260504043526 69 212 0.0 1.7 0.00 0.00 0.00 51 1008.0
20260504043031 69 188 0.0 1.7 0.00 0.00 0.00 51 1008.1
20260504042536 69 173 0.0 1.7 0.00 0.00 0.00 51 1008.1
20260504042019 69 194 0.0 1.7 0.00 0.00 0.00 51 1008.2
20260504041522 69 209 0.0 0.9 0.00 0.00 0.00 51 1008.2
20260504041025 69 215 0.0 1.7 0.00 0.00 0.00 51 1008.2
20260504040523 69 202 0.0 1.7 0.00 0.00 0.00 51 1008.2
20260504040033 69 224 0.0 0.9 0.00 0.00 0.00 51 1008.3
20260504035557 69 201 0.0 1.7 0.00 0.00 0.00 51 1008.3
20260504035020 69 185 0.0 4.3 0.00 0.00 0.00 50 1008.3
20260504034546 69 227 0.0 4.3 0.00 0.00 0.00 50 1008.4
20260504034030 69 209 0.0 0.9 0.00 0.00 0.00 50 1008.4
20260504033556 69 217 0.0 1.7 0.00 0.00 0.00 50 1008.4
20260504033019 69 196 0.0 1.7 0.00 0.00 0.00 49 1008.5
20260504032523 69 193 0.0 0.9 0.00 0.00 0.00 49 1008.5
20260504032028 70 232 0.0 0.9 0.00 0.00 0.00 49 1008.5
20260504031534 70 171 0.0 0.9 0.00 0.00 0.00 49 1008.5
20260504031019 70 198 0.0 0.9 0.00 0.00 0.00 49 1008.5
20260504030524 70 192 0.0 0.9 0.00 0.00 0.00 49 1008.5
20260504030029 70 186 0.0 0.9 0.00 0.00 0.00 49 1008.5
20260504025519 70 209 0.0 0.9 0.00 0.00 0.00 49 1008.6
20260504025043 70 198 0.0 0.9 0.00 0.00 0.00 49 1008.5
20260504024528 70 109 0.0 0.9 0.00 0.00 0.00 49 1008.5
20260504024054 70 213 0.0 0.9 0.00 0.00 0.00 49 1008.5
20260504023518 70 213 0.0 0.9 0.00 0.00 0.00 49 1008.5
20260504023023 70 215 0.0 0.9 0.00 0.00 0.00 49 1008.5
20260504022529 70 181 0.0 0.9 0.00 0.00 0.00 49 1008.5
20260504022033 70 192 0.0 0.0 0.00 0.00 0.00 49 1008.5
20260504021518 70 178 0.0 0.0 0.00 0.00 0.00 48 1008.5
20260504021024 70 196 0.0 0.0 0.00 0.00 0.00 48 1008.5
20260504020549 71 190 0.0 0.0 0.00 0.00 0.00 47 1008.5
20260504020053 71 196 0.0 0.0 0.00 0.00 0.00 46 1008.5
20260504015518 71 169 0.0 0.0 0.00 0.00 0.00 46 1008.5
20260504015027 71 211 0.0 0.0 0.00 0.00 0.00 46 1008.4
20260504014532 71 219 0.0 0.0 0.00 0.00 0.00 45 1008.5
20260504014058 72 162 0.0 0.0 0.00 0.00 0.00 45 1008.4
20260504013520 72 197 0.0 0.0 0.00 0.00 0.00 44 1008.4
20260504013025 72 200 0.0 0.0 0.00 0.00 0.00 43 1008.4
20260504012531 72 182 0.0 0.0 0.00 0.00 0.00 43 1008.5
20260504012035 72 186 0.0 0.0 0.00 0.00 0.00 42 1008.4
20260504011520 73 193 0.0 0.0 0.00 0.00 0.00 41 1008.4
20260504011025 73 209 0.0 0.0 0.00 0.00 0.00 41 1008.5
20260504010530 74 194 0.0 0.0 0.00 0.00 0.00 41 1008.5
20260504010035 74 210 0.0 0.0 0.00 0.00 0.00 41 1008.6
20260504005540 74 209 0.0 0.0 0.00 0.00 0.00 41 1008.6
20260504005027 74 216 0.0 0.0 0.00 0.00 0.00 41 1008.6
20260504004533 75 197 0.0 0.0 0.00 0.00 0.00 41 1008.6
20260504004018 75 202 0.0 0.0 0.00 0.00 0.00 41 1008.7
20260504003523 75 227 0.0 0.0 0.00 0.00 0.00 40 1008.7
20260504003028 76 212 0.0 0.0 0.00 0.00 0.00 40 1008.7
20260504002533 76 209 0.0 0.0 0.00 0.00 0.00 40 1008.7
20260504002018 76 207 0.0 0.0 0.00 0.00 0.00 39 1008.8
20260504001524 76 245 0.0 0.0 0.00 0.00 0.00 39 1008.7
20260504001029 77 233 0.0 0.0 0.00 0.00 0.00 38 1008.7
20260504000554 77 240 0.0 0.0 0.00 0.00 0.00 37 1008.7
20260504000018 77 210 0.0 0.9 0.00 0.00 0.00 37 1008.7
20260503235543 77 209 0.0 0.9 0.00 0.00 0.00 35 1008.7
20260503235047 78 215 0.0 0.0 0.00 0.00 0.00 35 1008.7
20260503234535 78 244 0.0 0.9 0.00 0.00 0.00 34 1008.8
20260503234041 78 236 0.0 2.6 0.00 0.00 0.00 34 1008.8
20260503233545 78 231 0.0 2.6 0.00 0.00 0.00 34 1008.7
20260503233029 78 205 0.0 0.9 0.00 0.00 0.00 34 1008.8
20260503232534 78 224 0.0 0.9 0.00 0.00 0.00 34 1008.7
20260503232018 78 239 0.0 3.5 0.00 0.00 0.00 34 1008.8
20260503231545 78 232 0.0 6.1 0.00 0.00 0.00 34 1008.9
20260503231028 78 214 0.0 6.1 0.00 0.00 0.00 35 1008.8
20260503230534 79 197 0.0 2.6 0.00 0.00 0.00 36 1008.8
20260503230020 79 230 0.0 2.6 0.00 0.00 0.00 36 1008.9
20260503225524 79 203 0.0 1.7 0.00 0.00 0.00 36 1008.8
20260503225029 79 213 0.0 7.0 0.00 0.00 0.00 35 1009.0
20260503224517 79 213 0.9 7.0 0.00 0.00 0.00 35 1008.9
20260503224022 79 239 0.9 6.1 0.00 0.00 0.00 34 1008.9
20260503223528 80 202 0.9 4.3 0.00 0.00 0.00 34 1008.9
20260503223034 80 213 0.0 10.4 0.00 0.00 0.00 33 1009.0
20260503222519 80 279 0.9 10.4 0.00 0.00 0.00 34 1009.1
20260503222044 80 244 0.9 6.1 0.00 0.00 0.00 33 1009.0
20260503221529 80 169 1.7 9.6 0.00 0.00 0.00 34 1009.1
20260503221033 80 227 0.0 7.0 0.00 0.00 0.00 34 1009.1
20260503220519 80 197 0.9 7.0 0.00 0.00 0.00 33 1009.3
20260503220024 80 234 0.0 9.6 0.00 0.00 0.00 34 1009.2
20260503215530 80 256 0.9 14.8 0.00 0.00 0.00 33 1009.2
20260503215018 80 188 1.7 14.8 0.00 0.00 0.00 33 1009.3
20260503214524 80 182 1.7 9.6 0.00 0.00 0.00 33 1009.2
20260503214027 80 196 0.9 10.4 0.00 0.00 0.00 33 1009.4
20260503213533 80 219 2.6 10.4 0.00 0.00 0.00 33 1009.5
20260503213057 80 282 0.9 8.7 0.00 0.00 0.00 33 1009.5
20260503212522 80 237 0.0 7.8 0.00 0.00 0.00 33 1009.6
20260503212026 80 186 0.9 7.8 0.00 0.00 0.00 34 1009.6
20260503211533 80 261 0.9 9.6 0.00 0.00 0.00 33 1009.7
20260503211037 80 265 0.9 7.8 0.00 0.00 0.00 33 1009.8
20260503210542 80 217 0.9 8.7 0.00 0.00 0.00 33 1009.8
20260503210026 80 220 1.7 8.7 0.00 0.00 0.00 32 1010.0
20260503205551 80 212 1.7 7.8 0.00 0.00 0.00 32 1010.1
20260503205035 80 180 0.0 6.1 0.00 0.00 0.00 34 1010.1
20260503204521 80 223 0.9 8.7 0.00 0.00 0.00 34 1010.3
20260503204028 79 306 0.9 12.2 0.00 0.00 0.00 33 1010.4
20260503203534 80 271 1.7 12.2 0.00 0.00 0.00 35 1010.4
20260503203018 79 220 0.9 7.0 0.00 0.00 0.00 35 1010.4
20260503202526 79 185 0.9 14.8 0.00 0.00 0.00 36 1010.5
20260503202029 79 227 2.6 14.8 0.00 0.00 0.00 35 1010.6
20260503201535 79 297 1.7 8.7 0.00 0.00 0.00 36 1010.7
20260503201019 79 183 0.9 5.2 0.00 0.00 0.00 37 1010.7
20260503200544 79 242 0.9 12.2 0.00 0.00 0.00 37 1010.7
20260503200028 79 189 1.7 12.2 0.00 0.00 0.00 36 1010.9
20260503195533 79 186 0.9 7.8 0.00 0.00 0.00 37 1010.9
20260503195018 78 196 1.7 10.4 0.00 0.00 0.00 37 1010.9
20260503194527 78 231 0.9 10.4 0.00 0.00 0.00 38 1011.1
20260503194033 78 192 0.0 7.0 0.00 0.00 0.00 39 1011.2
20260503193539 77 223 1.7 7.8 0.00 0.00 0.00 39 1011.3
20260503193023 77 201 1.7 7.8 0.00 0.00 0.00 39 1011.4
20260503192528 77 217 0.9 7.8 0.00 0.00 0.00 39 1011.6
20260503192053 77 214 1.7 8.7 0.00 0.00 0.00 39 1011.5
20260503191518 77 207 1.7 8.7 0.00 0.00 0.00 38 1011.6
20260503191043 77 185 1.7 9.6 0.00 0.00 0.00 39 1011.7
20260503190527 77 201 1.7 10.4 0.00 0.00 0.00 38 1011.8
20260503190030 77 263 0.9 10.4 0.00 0.00 0.00 40 1011.9
20260503185533 76 182 0.9 8.7 0.00 0.00 0.00 40 1011.9
20260503185057 76 182 2.6 8.7 0.00 0.00 0.00 40 1012.0
20260503184521 76 232 1.7 8.7 0.00 0.00 0.00 42 1012.1
20260503184026 76 254 1.7 11.3 0.00 0.00 0.00 41 1012.2
20260503183553 75 277 1.7 11.3 0.00 0.00 0.00 42 1012.2
20260503183021 75 215 0.0 10.4 0.00 0.00 0.00 42 1012.2
20260503182526 75 192 1.7 10.4 0.00 0.00 0.00 42 1012.3
20260503182030 74 179 0.9 8.7 0.00 0.00 0.00 44 1012.5
20260503181535 74 217 1.7 8.7 0.00 0.00 0.00 42 1012.5
20260503181020 74 215 1.7 7.8 0.00 0.00 0.00 43 1012.7
20260503180527 74 183 0.9 9.6 0.00 0.00 0.00 43 1012.8
20260503180031 74 247 1.7 9.6 0.00 0.00 0.00 44 1012.9
20260503175536 74 234 0.0 8.7 0.00 0.00 0.00 45 1013.0
20260503175041 73 207 1.7 13.0 0.00 0.00 0.00 44 1013.1
20260503174524 73 208 0.9 7.8 0.00 0.00 0.00 44 1013.3
20260503174030 73 276 0.9 7.8 0.00 0.00 0.00 46 1013.4
20260503173519 73 213 1.7 9.6 0.00 0.00 0.00 46 1013.4
20260503173045 73 236 1.7 9.6 0.00 0.00 0.00 46 1013.4
20260503172529 72 176 0.9 7.8 0.00 0.00 0.00 47 1013.5
20260503172035 72 196 0.9 7.8 0.00 0.00 0.00 47 1013.7
20260503171521 72 220 0.9 5.2 0.00 0.00 0.00 47 1013.7
20260503171025 72 206 0.0 7.0 0.00 0.00 0.00 48 1013.8
20260503170531 71 197 0.9 7.0 0.00 0.00 0.00 47 1013.8
20260503150528 63 147 0.0 4.3 0.00 0.00 0.00 49 1015.3
20260503131029 52 188 0.0 0.9 0.00 0.00 0.00 62 1016.1
20260503130534 52 174 0.0 0.9 0.00 0.00 0.00 63 1016.1
20260503110523 47 180 0.0 0.0 0.00 0.00 0.00 71 1016.1
20260503081519 46 132 0.0 0.0 0.00 0.00 0.00 73 1016.7
20260503081024 45 87 0.0 0.0 0.00 0.00 0.00 76 1016.8
20260503080529 44 42 0.0 0.0 0.00 0.00 0.00 77 1016.9
20260503072547 44 42 0.0 0.0 0.00 0.00 0.00 81 1017.1
20260503072030 44 42 0.0 0.0 0.00 0.00 0.00 82 1017.1
20260503071519 44 42 0.0 0.0 0.00 0.00 0.00 82 1017.1
20260503071044 44 42 0.0 0.0 0.00 0.00 0.00 81 1017.1
20260503070528 44 42 0.0 0.0 0.00 0.00 0.00 81 1017.2